Regional Weather Roundup
Issued by NWS

Home | Current Version | Previous Version | Text Only | Print | Product List | Glossary Off
Versions: 1 2 3 4 5 6 7 8 9 10 11 12 13 14 15 16 17 18 19 20 21 22 23 24 25 26 27 28 29 30 31 32 33 34 35 36 37 38 39 40 41 42 43 44 45 46 47 48 49 50

000
ASUS43 KOAX 230003
RWRNE

WEATHER ROUNDUP FOR NEBRASKA
NATIONAL WEATHER SERVICE OMAHA NE
700 PM CDT TUE MAY 22 2018

NOTES: SATELLITE DATA IS BEING USED TO AUGMENT CLOUD COVER ABOVE
       12000 FEET.
       "FAIR" INDICATES FEW OR NO CLOUDS BELOW 12,000 FEET WITH NO
       SIGNIFICANT WEATHER AND/OR OBSTRUCTIONS TO VISIBILITY.


NEZ001>004-019>022-054>056-230100-
NEBRASKA PANHANDLE

CITY           SKY/WX    TMP DP  RH WIND       PRES   REMARKS
SCOTTSBLUFF    PTSUNNY   76  59  55 SE9       29.86S
6HR MIN TEMP:  75; 6HR MAX TEMP:  82;

ALLIANCE       MOSUNNY   77  54  44 SE22G29   29.87F
6HR MIN TEMP:  77; 6HR MAX TEMP:  81;

CHADRON        PTSUNNY   71  54  54 E15       29.87R
6HR MIN TEMP:  69; 6HR MAX TEMP:  84; 6HR PCP: TRACE;

GORDON         FAIR      79  54  41 S14G22    29.89R
6HR MIN TEMP:  78; 6HR MAX TEMP:  83;

KIMBALL        MOSUNNY   73  51  45 SE13      29.90S
SIDNEY         SUNNY     78  51  38 SE16      29.88F
6HR MIN TEMP:  75; 6HR MAX TEMP:  80;

$$

NEZ057>060-069>072-079>082-230100-
SOUTHWEST NEBRASKA

CITY           SKY/WX    TMP DP  RH WIND       PRES   REMARKS
NORTH PLATTE   PTSUNNY   82  59  45 S12G23    29.86F
6HR MIN TEMP:  78; 6HR MAX TEMP:  84; 6HR PCP: TRACE;

IMPERIAL       PTSUNNY   80  51  36 S21G32    29.85F
6HR MIN TEMP:  77; 6HR MAX TEMP:  85;

LEXINGTON      PTSUNNY   82  56  41 SE15G24   29.88F
MCCOOK         CLOUDY    80  56  43 SE17G31   29.85F
6HR MIN TEMP:  79; 6HR MAX TEMP:  86;

OGALLALA       CLOUDY    80  53  38 S8        29.86F
$$

NEZ005>010-023>029-035>040-094-230100-
NORTH CENTRAL NEBRASKA

CITY           SKY/WX    TMP DP  RH WIND       PRES   REMARKS
VALENTINE      PTSUNNY   83  62  49 SE15      29.87F
6HR MIN TEMP:  79; 6HR MAX TEMP:  85;

AINSWORTH      CLOUDY    79  63  58 SE10      29.90S
BROKEN BOW     PTSUNNY   82  61  48 SE12      29.88F
6HR MIN TEMP:  76; 6HR MAX TEMP:  83;

O`NEILL        CLOUDY    83  67  59 SE5       29.90F
ORD            PTSUNNY   84  61  45 S9        29.87F
6HR MIN TEMP:  77; 6HR MAX TEMP:  85;

THEDFORD       PTSUNNY   82  60  47 SE14G21   29.90F
$$

NEZ041-046>049-061>064-073>077-083>087-230100-
SOUTH CENTRAL NEBRASKA

CITY           SKY/WX    TMP DP  RH WIND       PRES   REMARKS
GRAND ISLAND   CLOUDY    84  61  45 S16G24    29.91S
6HR MIN TEMP:  79; 6HR MAX TEMP:  87;

AURORA         MOSUNNY   85  58  39 S12       29.90F
HASTINGS       MOSUNNY   85  61  44 S16G26    29.91F
6HR MIN TEMP:  81; 6HR MAX TEMP:  87;

HEBRON         CLOUDY    88  56  34 S12G20    29.91F
HOLDREGE       SUNNY     82  54  38 S15       29.89S
KEARNEY        MOSUNNY   84  61  45 S23       29.90S
YORK           CLOUDY    84  63  48 S15G21    29.91S
$$

NEZ011>018-030>034-042>045-230100-
NORTHEAST NEBRASKA

CITY           SKY/WX    TMP DP  RH WIND       PRES   REMARKS
NORFOLK        MOSUNNY   84  63  49 S5        29.87F
6HR MIN TEMP:  74; 6HR MAX TEMP:  86;

ALBION         MOSUNNY   83  65  54 S9        29.90F
BLAIR          MOSUNNY   83  65  55 SE9       29.93S
COLUMBUS       SUNNY     87  62  43 S10       29.90S
FREMONT        SUNNY     84  66  54 SE13      29.92S
TEKAMAH        PTSUNNY   78  68  71 SE10      29.91F
6HR MIN TEMP:  75; 6HR MAX TEMP:  81; 6HR PCP: TRACE;

WAYNE          PTSUNNY   81  74  81 SE12      29.90F
$$

NEZ050>053-065>068-078-088>093-230100-
SOUTHEAST NEBRASKA

CITY           SKY/WX    TMP DP  RH WIND       PRES   REMARKS
LINCOLN        SUNNY     84  60  44 S15G22    29.91S
6HR MIN TEMP:  82; 6HR MAX TEMP:  88;

OMAHA EPPLEY   MOSUNNY   84  64  50 SE15      29.92S
6HR MIN TEMP:  74; 6HR MAX TEMP:  86; 6HR PCP: TRACE;

BEATRICE       CLOUDY    85  64  48 SE9       29.93S
FALLS CITY     MOSUNNY   85  60  42 S13       29.94S
6HR MIN TEMP:  83; 6HR MAX TEMP:  89;

NEBRASKA CITY  SUNNY     85  61  43 S15G22    29.94S
PLATTSMOUTH    SUNNY     84  67  56 SE8       29.92F
$$

NEZ044-045-051>053-067-230100-
OMAHA AREA

CITY           SKY/WX    TMP DP  RH WIND       PRES   REMARKS
OMAHA EPPLEY   MOSUNNY   84  64  50 SE15      29.92S
6HR MIN TEMP:  74; 6HR MAX TEMP:  86; 6HR PCP: TRACE;

BLAIR          MOSUNNY   83  65  55 SE9       29.93S
FREMONT        SUNNY     84  66  54 SE13      29.92S
MILLARD        SUNNY     84  67  56 SE9       29.92F
OFFUTT AFB     SUNNY     83  66  55 SE10      29.91F
PLATTSMOUTH    SUNNY     84  67  56 SE8       29.92F
WAHOO          FAIR      87  53  31 S15       29.91F
$$




USA.gov is the U.S. government's official web portal to all federal, state and local government web resources and services.